Other Public Products
Issued by NWS Grand Forks, ND

Home | Current Version | Previous Version | Graphics & Text | Print | Product List | Glossary On
Versions: 1 2 3 4 5 6 7 8 9 10 11 12 13 14 15 16 17 18 19 20 21 22 23 24 25 26 27 28 29 30 31 32 33 34 35 36 37 38 39 40 41 42 43 44 45 46 47 48 49 50
000
FPUS83 KFGF 260710
OPUFGF
PRAIRIE TO PINES WEATHER ROUNDUP
NATIONAL WEATHER SERVICE EASTERN NORTH DAKOTA/GRAND FORKS ND
100 AM CST WED NOV 26 2014

 **SATELLITE DATA USED TO AUGMENT SKY COVER AT AUTOMATED STATIONS**
 *****  WEATHER ACROSS EASTERN NORTH DAKOTA  *****

CITY           SKY/WX    TMP DP  RH WIND       PRES   REMARKS
GRAND FORKS    MIX PCPN   9   5  85 N18       30.19R WCI -10
GRAND FORKS AF CLOUDY     9   3  78 N16       30.19R WCI  -9
GRAND CITY NWS   N/A      9 N/A N/A N15         N/A  WCI  -8
BUXTON         NOT AVBL
DEVILS LAKE    PTCLDY     5  -6  61 N10       30.17R WCI -10
FARGO          CLOUDY    18  13  80 N21       30.09R WCI   1
WAHPETON ARPT  CLOUDY    23  18  80 N14       30.03R WCI  11
$$

 *****  WEATHER ACROSS CENTRAL AND WESTERN NORTH DAKOTA  *****

CITY           SKY/WX    TMP DP  RH WIND       PRES   REMARKS
JAMESTOWN      LGT SNOW  12   8  84 N15       30.10R FOG     WCI  -4
BISMARCK       CLOUDY    15   9  76 N8        30.17R WCI   4
MINOT          CLOUDY     5   0  79 NW7       30.21R HAZE    WCI  -7
MINOT AFB      CLOUDY     4   1  86 N6        30.22R WCI  -6
GARRISON         N/A      8   4  83 N3        30.18R
WILLISTON      CLOUDY    16  10  77 CALM      30.22R
DICKINSON      CLOUDY    19  15  84 N10       30.13R WCI   7
HETTINGER      CLOUDY    21  17  84 N12       30.14R WCI   9
$$

 *****  OTHER OBSERVATIONS NORTHEAST NORTH DAKOTA  *****

CITY           SKY/WX    TMP DP  RH WIND       PRES   REMARKS
WALHALLA         N/A      1   0  92 N15G22    30.27R WCI -18
LANGDON        CLOUDY     5   0  78 N15       30.17R WCI -13
CAVALIER       FAIR       3   0  85 N14G21    30.25R WCI -15
GRAFTON        CLOUDY     7   1  78 N15G21    30.22R WCI -11
CANDO          CLOUDY     5   1  85 N14       30.22R WCI -12
FORT TOTTEN    NOT AVBL
ROLLA          CLOUDY     1   0  92 N16       30.21R WCI -18
RUGBY          FAIR       0  -2  92 NW5       30.22R WCI -10
 ***** THE ABOVE OBSERVATIONS ARE NON NWS ARE NOT QUALITY
        CONTROLLED AND MAY MIS-REPORT RAIN FOR SNOW...
$$

 *****  OTHER OBSERVATIONS SOUTHEAST NORTH DAKOTA *****

CITY           SKY/WX    TMP DP  RH WIND       PRES   REMARKS
COOPERSTOWN    NOT AVBL
VALLEY CITY    LGT SNOW  12  10  92 N23G29    30.09R WCI  -7
OAKES          LGT SNOW  18  16  93 N25G33    30.02R WCI  -1
GWINNER        CLOUDY    21  18  86 N24G31    30.04R WCI   4
BUFFALO        NOT AVBL
WYNDMERE         N/A     21  19  93 N15         N/A  WCI   8
 ***** THE ABOVE OBSERVATIONS ARE NON NWS ARE NOT QUALITY
       CONTROLLED AND MAY MIS-REPORT RAIN FOR SNOW...
$$

  *****  WEATHER ACROSS NORTHERN MINNESOTA  *****

CITY           SKY/WX    TMP DP  RH WIND       PRES   REMARKS
FLAG ISLAND    CLOUDY     9   5  85 N15       30.15R WCI  -8
WARROAD        FLURRIES  10   7  85 N12       30.15R WCI  -4
ROSEAU         CLOUDY    10   3  72 N13       30.16R WCI  -5
HALLOCK        CLOUDY     7   0  72 N13       30.21R WCI  -9
THF RVR FALLS  MOCLDY    14   9  79 N13       30.13R WCI   0
HALSTAD          N/A     15  12  88 N22         N/A  WCI  -3
FOSSTON        LGT SNOW  16  12  86 N15       30.08R WCI   1
BAUDETTE       LGT SNOW  13   8  81 N9        30.11R WCI   1
WASKISH        LGT SNOW  16  12  86 CALM      30.09R
CROOKSTON      LGT SNOW  14  10  85 N16       30.16R WCI  -2
$$
  *****  WEATHER ACROSS CENTRAL AND WEST MINNESOTA  *****

CITY           SKY/WX    TMP DP  RH WIND       PRES   REMARKS
BEMIDJI        LGT SNOW  18  15  86 N5        30.05R WCI  11
PARK RAPIDS    FLURRIES  17  12  80 E3        30.01S
WADENA         CLOUDY    18  10  73 NE7       30.01R WCI   8
DETROIT LAKES  FLURRIES  19  18  93 NE5       30.03R WCI  13
MOORHEAD       DRIZZLE   19  19 100 N20       30.08R WCI   4
FERGUS FALLS   CLOUDY    19  12  73 NE7       30.04R HAZE    WCI  10
ELBOW LAKE       N/A     22  14  72 NE10      29.98R WCI  11
MORRIS MN      MOCLDY    25  18  74 E12       29.95R WCI  14
STAPLES        CLOUDY    18  10  73 NE3       30.01S
WHEATON        CLOUDY    21  16  79 N10       30.01R WCI  10
$$
  *****  WEATHER ELSEWHERE ACROSS MINNESOTA  *****

CITY           SKY/WX    TMP DP  RH WIND       PRES   REMARKS
DULUTH         CLOUDY    19  11  70 W3        30.04S
INTRNTL FALLS  LGT SNOW  15  10  80 N7        30.09R VSB 1   WCI   5
ELY            CLOUDY     7   3  85 CALM      30.04S
CLOQUET        CLOUDY    19  12  73 CALM      30.05R
BRAINERD       CLOUDY    18  12  77 NE7       30.03S WCI   9
HIBBING        CLOUDY    19   8  62 S3        30.04S
ALEXANDRIA     CLOUDY    20  13  74 NE9       29.98R WCI   9
SAINT CLOUD    CLOUDY    24  15  68 E7        30.00F WCI  16
MINNEAPOLIS    CLOUDY    24  16  71 E10       30.03S WCI  14
$$

  *****  WEATHER ACROSS SOUTH DAKOTA  *****

CITY           SKY/WX    TMP DP  RH WIND       PRES   REMARKS
SIOUX FALLS    LGT SNOW  31  29  92 E5        29.81S FOG
BROOKINGS      NOT AVBL
WATERTOWN      FLURRIES  27  24  89 E10       29.84R WCI  17
HURON          CLOUDY    32  30  92 NW3       29.83R
SISSETON         N/A     23  19  85 NE16      29.97R WCI  10
ABERDEEN       LGT SNOW  24  20  84 NE26G33   29.95R FOG     WCI   8
MITCHELL       CLOUDY    34  33  96 NW5       29.84R
PIERRE         CLOUDY    29  25  85 NW31G41   29.93R WCI  13
MOBRIDGE       CLOUDY    22  17  81 N24G32    30.01R WCI   5
RAPID CITY     CLOUDY    27  21  78 N31G40    30.07R WCI  10
$$

  *****  SOME WEATHER IN NEARBY STATES *****

CITY           SKY/WX    TMP DP  RH WIND       PRES   REMARKS
GLASGOW MT     CLOUDY    21  15  78 NE8       30.21R WCI  11
GREAT FALLS MT CLOUDY    30  25  81 S9        30.14R WCI  22
CHEYENNE WY    LGT SNOW  23  18  81 N18       30.06S WCI   9
SCOTTSBLUFF NE CLOUDY    31  25  78 W13       30.09R WCI  21
OMAHA NE       LGT RAIN  37  33  85 S14       29.84F
DES MOINES IA  CLOUDY    33  16  49 SE6       29.96F
DAVENPORT IA   CLEAR     16  12  84 SE6       30.12F WCI   7
CHICAGO IL     CLOUDY    21  17  84 SW6       30.17F WCI  13
EAU CLAIRE WI  CLOUDY    22  15  75 E5        30.08F WCI  16
LA CROSSE WI   MOCLDY    19  13  77 SE6       30.11F WCI  11
$$

  *****  SOME NATIONAL WEATHER *****

CITY           SKY/WX    TMP DP  RH WIND       PRES   REMARKS
LA GUARDIA NY  CLOUDY    51  29  42 NW12      30.17R
RALEIGH NC     HVY RAIN  49  46  90 N6        29.97F VSB 1
ATLANTA GA     LGT RAIN  48  35  60 N3        29.97F
NEW ORLEANS LA CLEAR     46  32  58 N5        30.23S
OKLAHOMA CITY  MOCLDY    42  27  55 S9        29.96F
ALBUQUERQUE NM PTCLDY    40   8  26 N9        30.30F
SALT LAKE CITY PTCLDY    43  28  55 S8        30.31S
LOS ANGELES CA CLEAR     62  48  60 VRB5      30.28S
BOISE ID       MOCLDY    49  40  71 N5        30.29R
SEATTLE WA     CLOUDY    56  53  90 S14       30.19R
$$

*** WEATHER ACROSS MANITOBA...SASKATCHEWAN AND ONTARIO ***
                ***ONTARIO***

CITY           SKY/WX    TMP DP  RH WIND       PRES   REMARKS
GERALDTON      CLOUDY     1  -2  85 NW2       30.10R
THUNDER BAY    CLOUDY    12  10  92 W2        30.12R
SIOUX LOOKOUT  FLURRIES   3  -4  72 N5        30.13R WCI  -6
TORONTO        CLOUDY    34  25  69 W8        30.19S
BIG TROUT LK   CLEAR    -22 -27  76 W9        30.14R WCI -42
PICKLE LAKE    NOT AVBL
DRYDEN         FLURRIES   5   1  85 N8        30.11R WCI  -8
KENORA         FLURRIES   3   0  85 N6        30.14R WCI  -8
$$
                *** MANITOBA***

CITY           SKY/WX    TMP DP  RH WIND       PRES   REMARKS
BRANDON        MOCLDY    -2  -8  78 CALM      30.30R
DAUPHIN        CLEAR    -15 -20  76 W7        30.37R WCI -31
ISLAND LAKE    CLEAR    -18 -26  69 NW5       30.23R WCI -31
PILOT MOUND      N/A     -2  -6  84 N13G18      N/A  WCI -21
THE PAS        CLEAR    -15 -20  76 NW9       30.36R WCI -33
THOMPSON       CLEAR    -24 -31  69 W5        30.28R WCI -38
WINNIPEG       CLEAR     -9 -15  77 N9        30.30R WCI -27
LYNN LAKE      CLEAR    -22 -27  76 NW10      30.27R WCI -44
CHURCHILL      CRYSTALS -15 -20  76 NW14      30.15R DRFTSNOWWCI -38
$$
                ***SASKATCHEWAN***

CITY           SKY/WX    TMP DP  RH WIND       PRES   REMARKS
ESTEVAN        LGT SNOW  10   7  85 N7        30.21R WCI   0
KINDERSLEY     CLOUDY    10   7  85 NE5       30.23R WCI   2
LLOYDMINSTER   FLURRIES   3   0  85 E3        30.25R
PRINCE ALBERT  CLEAR    -17 -20  83 W2        30.36R
REGINA         NOT AVBL
YORKTON        PTCLDY    -4  -9  77 N6        30.29R WCI -16
N. BATTLEFORD  MOCLDY    -4  -6  92 CALM      30.32R


USA.gov is the U.S. government's official web portal to all federal, state and local government web resources and services.